| time (UTC) | temp F | wind direction | speed MPH | gust MPH | rain 1hr in | rain 24hr in | rain mn in | humidity % | barometer mb |
| 20260903205206 | 93 | 240 | 2.0 | 5.0 | 0.00 | 0.07 | 0.07 | 65 | 1042.4 |
| 20260903204706 | 93 | 157 | 2.0 | 5.0 | 0.00 | 0.07 | 0.07 | 64 | 1042.4 |
| 20260903204206 | 94 | 253 | 2.0 | 5.0 | 0.00 | 0.07 | 0.07 | 65 | 1042.4 |
| 20260903203707 | 93 | 233 | 2.0 | 5.0 | 0.00 | 0.07 | 0.07 | 64 | 1042.5 |
| 20260903203207 | 93 | 253 | 2.0 | 9.0 | 0.00 | 0.07 | 0.07 | 66 | 1042.5 |
| 20260903202936 | 93 | 244 | 3.0 | 9.0 | 0.00 | 0.07 | 0.07 | 66 | 1042.5 |
| 20260903202201 | 92 | 153 | 3.0 | 8.0 | 0.00 | 0.07 | 0.07 | 67 | 1042.8 |
| 20260903201650 | 92 | 149 | 3.0 | 8.0 | 0.00 | 0.07 | 0.07 | 67 | 1042.8 |
| 20260903201151 | 92 | 175 | 3.0 | 7.0 | 0.00 | 0.07 | 0.07 | 67 | 1042.8 |
| 20260903200651 | 92 | 173 | 2.0 | 7.0 | 0.00 | 0.07 | 0.07 | 68 | 1043.1 |
| 20260903200150 | 91 | 146 | 2.0 | 4.0 | 0.00 | 0.07 | 0.07 | 70 | 1043.1 |
| 20260903195650 | 91 | 257 | 2.0 | 7.0 | 0.00 | 0.07 | 0.07 | 69 | 1043.1 |
| 20260903195151 | 91 | 244 | 2.0 | 7.0 | 0.00 | 0.07 | 0.07 | 68 | 1043.3 |
| 20260903194651 | 91 | 229 | 2.0 | 7.0 | 0.00 | 0.07 | 0.07 | 68 | 1043.3 |
| 20260903194150 | 91 | 272 | 2.0 | 7.0 | 0.00 | 0.07 | 0.07 | 69 | 1043.3 |
| 20260903193650 | 90 | 277 | 3.0 | 5.0 | 0.00 | 0.07 | 0.07 | 71 | 1043.5 |
| 20260903193144 | 90 | 146 | 3.0 | 8.0 | 0.00 | 0.07 | 0.07 | 71 | 1043.5 |
| 20260903192634 | 90 | 294 | 2.0 | 7.0 | 0.00 | 0.07 | 0.07 | 71 | 1043.5 |
| 20260903192344 | 89 | 190 | 2.0 | 7.0 | 0.00 | 0.07 | 0.07 | 72 | 1043.9 |
| 20260903191610 | 89 | 242 | 2.0 | 7.0 | 0.00 | 0.07 | 0.07 | 73 | 1043.9 |
| 20260903191102 | 88 | 254 | 1.0 | 5.0 | 0.00 | 0.07 | 0.07 | 73 | 1043.9 |
| 20260903190557 | 88 | 227 | 2.0 | 8.0 | 0.00 | 0.07 | 0.07 | 74 | 1044.0 |
| 20260903190050 | 88 | 226 | 2.0 | 8.0 | 0.00 | 0.07 | 0.07 | 74 | 1044.0 |
| 20260903190023 | 88 | 277 | 2.0 | 6.0 | 0.00 | 0.07 | 0.07 | 73 | 1044.0 |
| 20260903185038 | 88 | 230 | 2.0 | 6.0 | 0.00 | 0.07 | 0.07 | 73 | 1044.5 |
| 20260903184532 | 88 | 163 | 2.0 | 8.0 | 0.00 | 0.07 | 0.07 | 74 | 1044.5 |
| 20260903184021 | 88 | 257 | 2.0 | 8.0 | 0.00 | 0.07 | 0.07 | 74 | 1044.5 |
| 20260903184001 | 88 | 140 | 3.0 | 7.0 | 0.00 | 0.07 | 0.07 | 73 | 1044.5 |
| 20260903183014 | 87 | 169 | 3.0 | 8.0 | 0.00 | 0.08 | 0.07 | 75 | 1044.5 |
| 20260903182508 | 87 | 236 | 3.0 | 8.0 | 0.00 | 0.08 | 0.07 | 73 | 1044.5 |
| 20260903182002 | 87 | 134 | 3.0 | 9.0 | 0.00 | 0.09 | 0.07 | 73 | 1044.5 |
| 20260903181457 | 87 | 258 | 3.0 | 8.0 | 0.00 | 0.10 | 0.07 | 74 | 1044.5 |
| 20260903180952 | 86 | 245 | 3.0 | 8.0 | 0.00 | 0.10 | 0.07 | 75 | 1044.5 |
| 20260903180440 | 86 | 213 | 3.0 | 11.0 | 0.00 | 0.10 | 0.07 | 74 | 1045.0 |
| 20260903175938 | 85 | 306 | 4.0 | 12.0 | 0.00 | 0.10 | 0.07 | 76 | 1045.0 |
| 20260903175432 | 85 | 186 | 4.0 | 12.0 | 0.00 | 0.10 | 0.07 | 76 | 1045.0 |
| 20260903175414 | 85 | 254 | 3.0 | 9.0 | 0.00 | 0.10 | 0.07 | 77 | 1045.1 |
| 20260903174421 | 85 | 249 | 3.0 | 8.0 | 0.00 | 0.10 | 0.07 | 77 | 1045.1 |
| 20260903173914 | 84 | 239 | 3.0 | 10.0 | 0.00 | 0.11 | 0.07 | 81 | 1045.1 |
| 20260903173408 | 83 | 263 | 3.0 | 9.0 | 0.00 | 0.11 | 0.07 | 81 | 1045.5 |
| 20260903172858 | 83 | 241 | 3.0 | 8.0 | 0.00 | 0.11 | 0.07 | 81 | 1045.5 |
| 20260903172356 | 82 | 257 | 3.0 | 7.0 | 0.00 | 0.11 | 0.07 | 82 | 1045.5 |
| 20260903171850 | 82 | 263 | 2.0 | 7.0 | 0.00 | 0.11 | 0.07 | 83 | 1045.6 |
| 20260903171344 | 81 | 275 | 1.0 | 6.0 | 0.00 | 0.11 | 0.07 | 85 | 1045.6 |
| 20260903171326 | 80 | 250 | 0.0 | 2.0 | 0.00 | 0.11 | 0.07 | 87 | 1046.2 |
| 20260903170332 | 79 | 210 | 0.0 | 2.0 | 0.00 | 0.11 | 0.07 | 88 | 1046.2 |
| 20260903165826 | 78 | 202 | 1.0 | 4.0 | 0.00 | 0.11 | 0.07 | 89 | 1046.2 |
| 20260903165316 | 78 | 258 | 1.0 | 4.0 | 0.00 | 0.11 | 0.07 | 88 | 1046.5 |
| 20260903165305 | 78 | 236 | 1.0 | 3.0 | 0.00 | 0.11 | 0.07 | 88 | 1046.5 |
| 20260903164310 | 78 | 270 | 1.0 | 3.0 | 0.00 | 0.11 | 0.07 | 89 | 1046.5 |
| 20260903163802 | 78 | 261 | 1.0 | 3.0 | 0.00 | 0.11 | 0.07 | 89 | 1046.6 |
| 20260903163257 | 78 | 137 | 1.0 | 2.0 | 0.00 | 0.11 | 0.07 | 88 | 1046.6 |
| 20260903162750 | 78 | 226 | 1.0 | 3.0 | 0.00 | 0.11 | 0.07 | 87 | 1046.6 |
| 20260903162245 | 78 | 242 | 1.0 | 4.0 | 0.00 | 0.11 | 0.07 | 87 | 1047.0 |
| 20260903161733 | 78 | 247 | 2.0 | 5.0 | 0.00 | 0.11 | 0.07 | 87 | 1047.0 |
| 20260903161233 | 79 | 270 | 1.0 | 5.0 | 0.00 | 0.11 | 0.07 | 87 | 1047.0 |
| 20260903160726 | 78 | 163 | 1.0 | 4.0 | 0.00 | 0.11 | 0.07 | 89 | 1047.1 |
| 20260903160221 | 78 | 216 | 1.0 | 4.0 | 0.00 | 0.11 | 0.07 | 89 | 1047.1 |
| 20260903155713 | 78 | 307 | 1.0 | 4.0 | 0.00 | 0.11 | 0.07 | 89 | 1047.1 |
| 20260903155210 | 78 | 243 | 0.0 | 3.0 | 0.00 | 0.11 | 0.07 | 88 | 1047.1 |
| 20260903154702 | 78 | 246 | 0.0 | 3.0 | 0.00 | 0.11 | 0.07 | 88 | 1047.1 |
| 20260903154152 | 78 | 248 | 0.0 | 3.0 | 0.03 | 0.11 | 0.07 | 87 | 1047.1 |
| 20260903153650 | 78 | 12 | 0.0 | 2.0 | 0.04 | 0.11 | 0.07 | 88 | 1047.0 |
| 20260903153143 | 78 | 134 | 1.0 | 4.0 | 0.06 | 0.11 | 0.07 | 89 | 1047.0 |
| 20260903152638 | 77 | 221 | 1.0 | 4.0 | 0.07 | 0.11 | 0.07 | 92 | 1047.0 |
| 20260903152132 | 76 | 143 | 1.0 | 4.0 | 0.07 | 0.11 | 0.07 | 93 | 1047.6 |
| 20260903151626 | 75 | 67 | 0.0 | 1.0 | 0.07 | 0.11 | 0.07 | 94 | 1047.6 |
| 20260903151120 | 74 | 261 | 0.0 | 2.0 | 0.07 | 0.11 | 0.07 | 94 | 1047.6 |
| 20260903150609 | 74 | 261 | 0.0 | 2.0 | 0.07 | 0.11 | 0.07 | 94 | 1047.6 |
| 20260903150108 | 74 | 225 | 0.0 | 3.0 | 0.07 | 0.11 | 0.07 | 94 | 1047.6 |
| 20260903145602 | 73 | 247 | 1.0 | 8.0 | 0.07 | 0.11 | 0.07 | 94 | 1047.6 |
| 20260903145056 | 73 | 106 | 2.0 | 8.0 | 0.07 | 0.11 | 0.07 | 94 | 1047.3 |
| 20260903144550 | 74 | 212 | 1.0 | 7.0 | 0.06 | 0.10 | 0.06 | 93 | 1047.3 |
| 20260903144039 | 74 | 44 | 0.0 | 3.0 | 0.03 | 0.07 | 0.03 | 94 | 1047.3 |
| 20260903143538 | 74 | 259 | 1.0 | 4.0 | 0.02 | 0.06 | 0.03 | 92 | 1046.6 |
| 20260903143027 | 75 | 216 | 2.0 | 6.0 | 0.00 | 0.04 | 0.01 | 92 | 1046.6 |
| 20260903142747 | 75 | 261 | 2.0 | 6.0 | 0.00 | 0.04 | 0.00 | 91 | 1046.6 |
| 20260903142018 | 75 | 206 | 2.0 | 6.0 | 0.00 | 0.04 | 0.00 | 91 | 1046.6 |
| 20260903141736 | 75 | 266 | 1.0 | 4.0 | 0.00 | 0.04 | 0.00 | 91 | 1046.6 |
| 20260903141224 | 75 | 263 | 0.0 | 2.0 | 0.00 | 0.04 | 0.00 | 91 | 1046.6 |
| 20260903140500 | 75 | 229 | 0.0 | 2.0 | 0.00 | 0.04 | 0.00 | 92 | 1047.1 |
| 20260903135954 | 75 | 240 | 0.0 | 2.0 | 0.00 | 0.04 | 0.00 | 92 | 1047.1 |
| 20260903135448 | 74 | 221 | 0.0 | 2.0 | 0.00 | 0.04 | 0.00 | 92 | 1047.1 |
| 20260903134942 | 74 | 269 | 1.0 | 3.0 | 0.00 | 0.04 | 0.00 | 92 | 1046.6 |
| 20260903134432 | 74 | 233 | 1.0 | 4.0 | 0.00 | 0.04 | 0.00 | 92 | 1046.6 |
| 20260903133930 | 74 | 254 | 1.0 | 4.0 | 0.00 | 0.04 | 0.00 | 92 | 1046.6 |
| 20260903133424 | 74 | 152 | 0.0 | 3.0 | 0.00 | 0.04 | 0.00 | 94 | 1046.8 |
| 20260903132918 | 73 | 247 | 1.0 | 2.0 | 0.00 | 0.04 | 0.00 | 94 | 1046.8 |
| 20260903132412 | 73 | 131 | 1.0 | 3.0 | 0.00 | 0.04 | 0.00 | 94 | 1046.8 |
| 20260903131905 | 73 | 273 | 0.0 | 3.0 | 0.00 | 0.04 | 0.00 | 93 | 1046.8 |
| 20260903131625 | 73 | 178 | 0.0 | 0.0 | 0.00 | 0.04 | 0.00 | 94 | 1046.8 |
| 20260903130850 | 73 | 160 | 0.0 | 2.0 | 0.00 | 0.04 | 0.00 | 94 | 1046.8 |
| 20260903130349 | 73 | 161 | 0.0 | 2.0 | 0.00 | 0.04 | 0.00 | 94 | 1047.1 |
| 20260903125842 | 73 | 171 | 0.0 | 2.0 | 0.00 | 0.04 | 0.00 | 95 | 1047.1 |
| 20260903125336 | 73 | 234 | 0.0 | 1.0 | 0.00 | 0.04 | 0.00 | 95 | 1047.1 |
| 20260903124829 | 73 | 257 | 0.0 | 0.0 | 0.00 | 0.04 | 0.00 | 95 | 1047.1 |
| 20260903124324 | 72 | 257 | 0.0 | 1.0 | 0.00 | 0.04 | 0.00 | 95 | 1047.1 |
| 20260903123818 | 72 | 153 | 0.0 | 1.0 | 0.00 | 0.04 | 0.00 | 96 | 1047.1 |
| 20260903123308 | 72 | 150 | 0.0 | 0.0 | 0.00 | 0.04 | 0.00 | 96 | 1047.1 |
| 20260903123022 | 72 | 149 | 0.0 | 0.0 | 0.00 | 0.04 | 0.00 | 96 | 1047.1 |
| 20260903122254 | 72 | 149 | 0.0 | 0.0 | 0.00 | 0.04 | 0.00 | 96 | 1047.7 |
| 20260903121750 | 71 | 148 | 0.0 | 2.0 | 0.00 | 0.04 | 0.00 | 96 | 1047.7 |
| 20260903121249 | 71 | 148 | 0.0 | 2.0 | 0.00 | 0.04 | 0.00 | 96 | 1047.7 |
| 20260903120749 | 71 | 253 | 0.0 | 1.0 | 0.00 | 0.04 | 0.00 | 96 | 1047.3 |
| 20260903120250 | 71 | 261 | 0.0 | 1.0 | 0.00 | 0.04 | 0.00 | 97 | 1047.3 |
| 20260903115750 | 71 | 321 | 0.0 | 2.0 | 0.00 | 0.04 | 0.00 | 97 | 1047.3 |
| 20260903115249 | 71 | 16 | 0.0 | 2.0 | 0.00 | 0.04 | 0.00 | 97 | 1047.4 |
| 20260903114749 | 71 | 254 | 0.0 | 0.0 | 0.00 | 0.04 | 0.00 | 97 | 1047.4 |
| 20260903114250 | 71 | 254 | 0.0 | 0.0 | 0.00 | 0.04 | 0.00 | 97 | 1047.4 |
| 20260903113750 | 71 | 184 | 0.0 | 0.0 | 0.00 | 0.04 | 0.00 | 97 | 1047.6 |
| 20260903113245 | 71 | 183 | 0.0 | 1.0 | 0.00 | 0.04 | 0.00 | 97 | 1047.6 |
| 20260903112732 | 71 | 205 | 0.0 | 1.0 | 0.00 | 0.04 | 0.00 | 97 | 1047.6 |
| 20260903112219 | 71 | 30 | 0.0 | 1.0 | 0.00 | 0.04 | 0.00 | 97 | 1047.1 |
| 20260903111708 | 71 | 113 | 0.0 | 0.0 | 0.00 | 0.04 | 0.00 | 97 | 1047.1 |
| 20260903111155 | 71 | 317 | 0.0 | 0.0 | 0.00 | 0.04 | 0.00 | 97 | 1047.1 |
| 20260903110649 | 70 | 317 | 0.0 | 1.0 | 0.00 | 0.04 | 0.00 | 97 | 1046.8 |
| 20260903110149 | 70 | 323 | 0.0 | 2.0 | 0.00 | 0.04 | 0.00 | 97 | 1046.8 |
| 20260903105908 | 71 | 324 | 1.0 | 5.0 | 0.00 | 0.04 | 0.00 | 97 | 1046.8 |
| 20260903105150 | 71 | 297 | 1.0 | 5.0 | 0.00 | 0.04 | 0.00 | 97 | 1047.0 |
| 20260903104649 | 71 | 90 | 1.0 | 7.0 | 0.00 | 0.04 | 0.00 | 97 | 1047.0 |
| 20260903104150 | 70 | 338 | 2.0 | 7.0 | 0.00 | 0.04 | 0.00 | 98 | 1047.0 |
| 20260903103649 | 70 | 176 | 2.0 | 7.0 | 0.00 | 0.04 | 0.00 | 98 | 1046.6 |
| 20260903103149 | 70 | 219 | 1.0 | 5.0 | 0.00 | 0.04 | 0.00 | 98 | 1046.6 |
| 20260903102647 | 70 | 121 | 1.0 | 4.0 | 0.00 | 0.04 | 0.00 | 98 | 1046.6 |
| 20260903102143 | 70 | 30 | 1.0 | 3.0 | 0.00 | 0.04 | 0.00 | 98 | 1046.0 |
| 20260903101637 | 70 | 242 | 0.0 | 3.0 | 0.00 | 0.04 | 0.00 | 98 | 1046.0 |
| 20260903101355 | 70 | 298 | 0.0 | 2.0 | 0.00 | 0.04 | 0.00 | 98 | 1046.0 |
| 20260903100620 | 70 | 254 | 0.0 | 3.0 | 0.00 | 0.04 | 0.00 | 98 | 1045.6 |
| 20260903100120 | 70 | 12 | 0.0 | 3.0 | 0.00 | 0.04 | 0.00 | 98 | 1045.6 |
| 20260903095614 | 70 | 134 | 0.0 | 2.0 | 0.00 | 0.05 | 0.00 | 98 | 1045.6 |
| 20260903095107 | 70 | 133 | 0.0 | 3.0 | 0.00 | 0.05 | 0.00 | 98 | 1045.4 |
| 20260903094601 | 70 | 121 | 0.0 | 3.0 | 0.00 | 0.05 | 0.00 | 98 | 1045.4 |
| 20260903094319 | 70 | 94 | 0.0 | 2.0 | 0.00 | 0.05 | 0.00 | 98 | 1045.4 |
| 20260903093548 | 70 | 81 | 0.0 | 2.0 | 0.00 | 0.05 | 0.00 | 98 | 1045.2 |
| 20260903093041 | 70 | 265 | 0.0 | 2.0 | 0.00 | 0.05 | 0.00 | 98 | 1045.2 |
| 20260903092535 | 70 | 248 | 0.0 | 5.0 | 0.00 | 0.05 | 0.00 | 98 | 1045.2 |
| 20260903092024 | 70 | 97 | 0.0 | 5.0 | 0.00 | 0.05 | 0.00 | 98 | 1045.0 |
| 20260903091524 | 70 | 107 | 1.0 | 5.0 | 0.00 | 0.05 | 0.00 | 98 | 1045.0 |
| 20260903091017 | 70 | 132 | 2.0 | 6.0 | 0.00 | 0.05 | 0.00 | 98 | 1045.0 |
| 20260903090512 | 70 | 113 | 2.0 | 6.0 | 0.00 | 0.05 | 0.00 | 98 | 1045.0 |
| 20260903090005 | 70 | 119 | 0.0 | 5.0 | 0.00 | 0.05 | 0.00 | 98 | 1045.0 |
| 20260903085500 | 70 | 114 | 0.0 | 0.0 | 0.00 | 0.05 | 0.00 | 98 | 1045.0 |
| 20260903084953 | 70 | 116 | 0.0 | 0.0 | 0.00 | 0.05 | 0.00 | 98 | 1045.0 |
| 20260903084702 | 70 | 117 | 0.0 | 0.0 | 0.00 | 0.05 | 0.00 | 98 | 1045.0 |
| 20260903083941 | 70 | 154 | 0.0 | 0.0 | 0.00 | 0.05 | 0.00 | 98 | 1045.0 |
| 20260903083519 | 70 | 153 | 0.0 | 0.0 | 0.00 | 0.05 | 0.00 | 98 | 1044.9 |
| 20260903082905 | 70 | 157 | 0.0 | 0.0 | 0.00 | 0.05 | 0.00 | 98 | 1044.9 |
| 20260903081917 | 70 | 157 | 0.0 | 0.0 | 0.00 | 0.05 | 0.00 | 98 | 1044.9 |
| 20260903081411 | 70 | 157 | 0.0 | 2.0 | 0.00 | 0.05 | 0.00 | 98 | 1044.9 |
| 20260903081128 | 70 | 162 | 0.0 | 2.0 | 0.00 | 0.05 | 0.00 | 98 | 1044.9 |
| 20260903080359 | 70 | 11 | 0.0 | 1.0 | 0.00 | 0.05 | 0.00 | 98 | 1044.8 |
| 20260903075848 | 70 | 335 | 0.0 | 1.0 | 0.00 | 0.05 | 0.00 | 98 | 1044.8 |
| 20260903075347 | 70 | 246 | 0.0 | 0.0 | 0.00 | 0.05 | 0.00 | 98 | 1044.6 |
| 20260903074841 | 70 | 246 | 0.0 | 0.0 | 0.00 | 0.05 | 0.00 | 98 | 1044.6 |
| 20260903074603 | 70 | 246 | 0.0 | 0.0 | 0.00 | 0.05 | 0.00 | 98 | 1044.6 |
| 20260903074050 | 70 | 246 | 0.0 | 0.0 | 0.00 | 0.05 | 0.00 | 98 | 1044.5 |
| 20260903073319 | 70 | 246 | 0.0 | 0.0 | 0.00 | 0.05 | 0.00 | 98 | 1044.5 |
| 20260903072817 | 70 | 246 | 0.0 | 0.0 | 0.00 | 0.05 | 0.00 | 99 | 1044.5 |
| 20260903072533 | 70 | 246 | 0.0 | 0.0 | 0.00 | 0.05 | 0.00 | 98 | 1044.6 |
| 20260903071805 | 69 | 246 | 0.0 | 0.0 | 0.00 | 0.05 | 0.00 | 97 | 1044.6 |
| 20260903071259 | 70 | 246 | 0.0 | 0.0 | 0.00 | 0.05 | 0.00 | 97 | 1044.6 |
| 20260903070753 | 70 | 246 | 0.0 | 0.0 | 0.00 | 0.05 | 0.00 | 97 | 1044.6 |
| 20260903070247 | 70 | 246 | 0.0 | 0.0 | 0.00 | 0.05 | 0.00 | 97 | 1044.6 |
| 20260903065736 | 70 | 246 | 0.0 | 0.0 | 0.00 | 0.05 | 0.00 | 97 | 1044.6 |
| 20260903065235 | 70 | 246 | 0.0 | 0.0 | 0.00 | 0.05 | 0.00 | 97 | 1044.6 |
| 20260903065211 | 70 | 246 | 0.0 | 0.0 | 0.00 | 0.05 | 0.00 | 97 | 1044.6 |
| 20260903064450 | 70 | 246 | 0.0 | 0.0 | 0.00 | 0.05 | 0.00 | 97 | 1044.6 |
| 20260903063717 | 70 | 246 | 0.0 | 0.0 | 0.00 | 0.05 | 0.00 | 98 | 1044.5 |
| 20260903063211 | 70 | 246 | 0.0 | 0.0 | 0.00 | 0.05 | 0.00 | 98 | 1044.5 |
| 20260903062705 | 70 | 246 | 0.0 | 0.0 | 0.00 | 0.05 | 0.00 | 97 | 1044.5 |
| 20260903062154 | 70 | 246 | 0.0 | 0.0 | 0.00 | 0.05 | 0.00 | 97 | 1044.5 |
| 20260903061916 | 70 | 246 | 0.0 | 0.0 | 0.00 | 0.05 | 0.00 | 97 | 1044.5 |
| 20260903061147 | 70 | 246 | 0.0 | 0.0 | 0.00 | 0.05 | 0.00 | 96 | 1044.5 |
| 20260903060900 | 70 | 246 | 0.0 | 0.0 | 0.00 | 0.05 | 0.00 | 96 | 1044.6 |
| 20260903060135 | 70 | 246 | 0.0 | 0.0 | 0.00 | 0.05 | 0.00 | 96 | 1044.6 |
| 20260903055629 | 70 | 246 | 0.0 | 0.0 | 0.00 | 0.05 | 0.00 | 96 | 1044.6 |
| 20260903055123 | 71 | 246 | 0.0 | 0.0 | 0.00 | 0.05 | 0.00 | 96 | 1044.9 |
| 20260903054614 | 71 | 246 | 0.0 | 0.0 | 0.00 | 0.05 | 0.00 | 95 | 1044.9 |
| 20260903054111 | 71 | 246 | 0.0 | 0.0 | 0.00 | 0.05 | 0.00 | 95 | 1044.9 |
| 20260903053604 | 71 | 246 | 0.0 | 0.0 | 0.00 | 0.05 | 0.00 | 95 | 1045.0 |
| 20260903053059 | 71 | 246 | 0.0 | 0.0 | 0.00 | 0.05 | 0.00 | 95 | 1045.0 |
| 20260903052816 | 71 | 246 | 0.0 | 0.0 | 0.00 | 0.05 | 0.00 | 95 | 1045.0 |
| 20260903052047 | 72 | 246 | 0.0 | 0.0 | 0.00 | 0.05 | 0.00 | 95 | 1045.0 |
| 20260903051540 | 72 | 246 | 0.0 | 0.0 | 0.00 | 0.05 | 0.00 | 95 | 1045.0 |
| 20260903051515 | 72 | 246 | 0.0 | 0.0 | 0.00 | 0.05 | 0.00 | 95 | 1045.0 |
| 20260903050751 | 72 | 246 | 0.0 | 0.0 | 0.00 | 0.05 | 0.00 | 95 | 1045.1 |
| 20260903050022 | 72 | 246 | 0.0 | 0.0 | 0.00 | 0.05 | 0.00 | 95 | 1045.1 |
| 20260903045516 | 72 | 246 | 0.0 | 0.0 | 0.00 | 0.05 | 0.00 | 95 | 1045.1 |
| 20260903045010 | 72 | 246 | 0.0 | 0.0 | 0.00 | 0.05 | 0.00 | 95 | 1045.1 |
| 20260903044504 | 72 | 246 | 0.0 | 0.0 | 0.00 | 0.05 | 0.00 | 95 | 1045.1 |
| 20260903043959 | 72 | 246 | 0.0 | 0.0 | 0.00 | 0.05 | 0.00 | 95 | 1045.1 |
| 20260903043449 | 72 | 246 | 0.0 | 0.0 | 0.00 | 0.05 | 0.00 | 95 | 1045.5 |
| 20260903042947 | 72 | 246 | 0.0 | 0.0 | 0.00 | 0.05 | 0.00 | 95 | 1045.5 |
| 20260903042707 | 72 | 246 | 0.0 | 0.0 | 0.00 | 0.05 | 0.00 | 95 | 1045.5 |
| 20260903042412 | 72 | 246 | 0.0 | 0.0 | 0.00 | 0.05 | 0.00 | 95 | 1045.5 |
| 20260903041429 | 72 | 246 | 0.0 | 0.0 | 0.00 | 0.05 | 0.00 | 95 | 1045.5 |
| 20260903040923 | 73 | 246 | 0.0 | 0.0 | 0.00 | 0.05 | 0.00 | 95 | 1045.5 |
| 20260903040643 | 73 | 246 | 0.0 | 0.0 | 0.00 | 0.05 | 0.00 | 95 | 1045.4 |
| 20260903035906 | 73 | 246 | 0.0 | 0.0 | 0.00 | 0.05 | 0.05 | 95 | 1045.4 |
| 20260903035405 | 72 | 246 | 0.0 | 0.0 | 0.00 | 0.05 | 0.05 | 96 | 1045.4 |
| 20260903034858 | 72 | 186 | 0.0 | 0.0 | 0.00 | 0.05 | 0.05 | 96 | 1045.3 |
| 20260903034353 | 72 | 187 | 0.0 | 0.0 | 0.00 | 0.05 | 0.05 | 96 | 1045.3 |
| 20260903034328 | 72 | 187 | 0.0 | 0.0 | 0.00 | 0.05 | 0.05 | 96 | 1045.3 |
| 20260903033341 | 71 | 187 | 0.0 | 0.0 | 0.00 | 0.05 | 0.05 | 96 | 1045.3 |
| 20260903032833 | 71 | 141 | 0.0 | 0.0 | 0.00 | 0.05 | 0.05 | 96 | 1045.3 |
| 20260903032333 | 71 | 141 | 0.0 | 0.0 | 0.00 | 0.05 | 0.05 | 96 | 1045.3 |
| 20260903032311 | 71 | 141 | 0.0 | 0.0 | 0.00 | 0.05 | 0.05 | 96 | 1045.3 |
| 20260903031330 | 71 | 141 | 0.0 | 0.0 | 0.00 | 0.05 | 0.05 | 96 | 1045.3 |
| 20260903030831 | 71 | 141 | 0.0 | 0.0 | 0.00 | 0.05 | 0.05 | 96 | 1045.4 |
| 20260903030332 | 71 | 141 | 0.0 | 0.0 | 0.00 | 0.05 | 0.05 | 96 | 1045.4 |
| 20260903025830 | 71 | 141 | 0.0 | 0.0 | 0.00 | 0.05 | 0.05 | 96 | 1045.4 |
| 20260903025332 | 71 | 142 | 0.0 | 0.0 | 0.00 | 0.05 | 0.05 | 95 | 1045.1 |
| 20260903024831 | 71 | 142 | 0.0 | 0.0 | 0.00 | 0.05 | 0.05 | 95 | 1045.1 |
| 20260903024331 | 71 | 142 | 0.0 | 0.0 | 0.00 | 0.05 | 0.05 | 95 | 1045.1 |
| 20260903023824 | 71 | 142 | 0.0 | 0.0 | 0.00 | 0.05 | 0.05 | 94 | 1045.2 |
| 20260903023315 | 71 | 142 | 0.0 | 0.0 | 0.00 | 0.05 | 0.05 | 95 | 1045.2 |
| 20260903022814 | 71 | 142 | 0.0 | 0.0 | 0.00 | 0.05 | 0.05 | 95 | 1045.2 |
| 20260903022315 | 71 | 142 | 0.0 | 0.0 | 0.00 | 0.05 | 0.05 | 94 | 1045.1 |
| 20260903021815 | 72 | 142 | 0.0 | 0.0 | 0.00 | 0.05 | 0.05 | 94 | 1045.1 |
| 20260903021315 | 72 | 142 | 0.0 | 0.0 | 0.00 | 0.05 | 0.05 | 94 | 1045.1 |
| 20260903020814 | 72 | 142 | 0.0 | 0.0 | 0.00 | 0.05 | 0.05 | 94 | 1045.1 |
| 20260903020757 | 72 | 142 | 0.0 | 0.0 | 0.00 | 0.05 | 0.05 | 94 | 1045.1 |
| 20260903015814 | 72 | 142 | 0.0 | 0.0 | 0.00 | 0.05 | 0.05 | 94 | 1045.1 |
| 20260903015316 | 72 | 142 | 0.0 | 0.0 | 0.00 | 0.05 | 0.05 | 93 | 1045.4 |
| 20260903014809 | 73 | 142 | 0.0 | 0.0 | 0.00 | 0.05 | 0.05 | 93 | 1045.4 |
| 20260903014256 | 73 | 142 | 0.0 | 0.0 | 0.00 | 0.05 | 0.05 | 93 | 1045.4 |
| 20260903014013 | 73 | 142 | 0.0 | 0.0 | 0.00 | 0.05 | 0.05 | 93 | 1045.5 |
| 20260903013234 | 73 | 142 | 0.0 | 0.0 | 0.00 | 0.05 | 0.05 | 93 | 1045.5 |
| 20260903012726 | 74 | 142 | 0.0 | 0.0 | 0.00 | 0.05 | 0.05 | 92 | 1045.5 |
| 20260903012221 | 74 | 142 | 0.0 | 0.0 | 0.00 | 0.05 | 0.05 | 92 | 1045.1 |
| 20260903011714 | 74 | 142 | 0.0 | 0.0 | 0.00 | 0.05 | 0.05 | 92 | 1045.1 |
| 20260903011209 | 74 | 142 | 0.0 | 0.0 | 0.00 | 0.05 | 0.05 | 92 | 1045.1 |
| 20260903010702 | 74 | 142 | 0.0 | 1.0 | 0.00 | 0.05 | 0.05 | 92 | 1045.2 |
| 20260903010156 | 74 | 142 | 0.0 | 1.0 | 0.00 | 0.05 | 0.05 | 92 | 1045.2 |
| 20260903005646 | 74 | 139 | 0.0 | 1.0 | 0.00 | 0.05 | 0.05 | 92 | 1045.2 |
| 20260903005140 | 74 | 151 | 0.0 | 0.0 | 0.00 | 0.05 | 0.05 | 91 | 1045.5 |
| 20260903004638 | 74 | 92 | 0.0 | 0.0 | 0.00 | 0.05 | 0.05 | 91 | 1045.5 |
| 20260903004130 | 74 | 83 | 0.0 | 0.0 | 0.00 | 0.05 | 0.05 | 91 | 1045.5 |
| 20260903003620 | 74 | 83 | 0.0 | 0.0 | 0.00 | 0.05 | 0.05 | 90 | 1045.6 |
| 20260903003343 | 75 | 83 | 0.0 | 0.0 | 0.00 | 0.05 | 0.05 | 90 | 1045.6 |
| 20260903002613 | 75 | 83 | 0.0 | 0.0 | 0.00 | 0.05 | 0.05 | 90 | 1045.6 |
| 20260903002106 | 75 | 83 | 0.0 | 0.0 | 0.00 | 0.05 | 0.05 | 90 | 1045.8 |
| 20260903001600 | 75 | 84 | 0.0 | 0.0 | 0.00 | 0.05 | 0.05 | 89 | 1045.8 |
| 20260903001049 | 75 | 83 | 0.0 | 0.0 | 0.00 | 0.05 | 0.05 | 89 | 1045.8 |
| 20260903000549 | 76 | 84 | 0.0 | 0.0 | 0.00 | 0.05 | 0.05 | 89 | 1045.8 |
| 20260903000038 | 76 | 84 | 0.0 | 0.0 | 0.00 | 0.05 | 0.05 | 88 | 1045.8 |
| 20260902235533 | 77 | 84 | 0.0 | 0.0 | 0.00 | 0.05 | 0.05 | 87 | 1045.8 |
| 20260902235026 | 77 | 84 | 0.0 | 0.0 | 0.00 | 0.05 | 0.05 | 87 | 1046.1 |
| 20260902234521 | 77 | 83 | 0.0 | 0.0 | 0.00 | 0.05 | 0.05 | 87 | 1046.1 |
| 20260902234010 | 78 | 83 | 0.0 | 0.0 | 0.00 | 0.05 | 0.05 | 86 | 1046.1 |
| 20260902233508 | 78 | 83 | 0.0 | 0.0 | 0.00 | 0.05 | 0.05 | 86 | 1046.2 |
| 20260902233002 | 78 | 84 | 0.0 | 0.0 | 0.00 | 0.05 | 0.05 | 86 | 1046.2 |
| 20260902232456 | 78 | 84 | 0.0 | 0.0 | 0.00 | 0.05 | 0.05 | 85 | 1046.2 |
| 20260902231950 | 79 | 84 | 0.0 | 2.0 | 0.00 | 0.05 | 0.05 | 84 | 1046.0 |
| 20260902231440 | 79 | 84 | 0.0 | 2.0 | 0.00 | 0.05 | 0.05 | 84 | 1046.0 |
| 20260902230938 | 80 | 20 | 0.0 | 2.0 | 0.00 | 0.05 | 0.05 | 83 | 1046.0 |
| 20260902230432 | 80 | 143 | 0.0 | 2.0 | 0.00 | 0.05 | 0.05 | 82 | 1045.9 |
| 20260902225926 | 80 | 169 | 1.0 | 5.0 | 0.00 | 0.05 | 0.05 | 82 | 1045.9 |
| 20260902225416 | 80 | 195 | 1.0 | 5.0 | 0.00 | 0.05 | 0.05 | 82 | 1045.9 |
| 20260902224914 | 81 | 157 | 1.0 | 5.0 | 0.00 | 0.05 | 0.05 | 81 | 1046.1 |
| 20260902224407 | 81 | 153 | 2.0 | 5.0 | 0.00 | 0.05 | 0.05 | 81 | 1046.1 |
| 20260902223902 | 82 | 154 | 2.0 | 7.0 | 0.00 | 0.05 | 0.05 | 80 | 1046.1 |
| 20260902223356 | 83 | 178 | 2.0 | 7.0 | 0.00 | 0.05 | 0.05 | 79 | 1045.9 |
| 20260902222850 | 83 | 153 | 1.0 | 5.0 | 0.00 | 0.05 | 0.05 | 78 | 1045.9 |
| 20260902222340 | 83 | 126 | 1.0 | 6.0 | 0.00 | 0.05 | 0.05 | 78 | 1045.8 |
| 20260902221835 | 83 | 185 | 2.0 | 6.0 | 0.00 | 0.05 | 0.05 | 77 | 1045.8 |
| 20260902221553 | 84 | 148 | 2.0 | 5.0 | 0.00 | 0.05 | 0.05 | 75 | 1045.8 |
| 20260902220828 | 84 | 153 | 2.0 | 6.0 | 0.00 | 0.05 | 0.05 | 75 | 1045.6 |
| 20260902220320 | 85 | 136 | 2.0 | 6.0 | 0.00 | 0.05 | 0.05 | 74 | 1045.6 |
| 20260902215814 | 85 | 46 | 2.0 | 6.0 | 0.00 | 0.05 | 0.05 | 72 | 1045.6 |
| 20260902215531 | 85 | 150 | 2.0 | 6.0 | 0.00 | 0.05 | 0.05 | 72 | 1045.7 |
| 20260902214802 | 85 | 101 | 2.0 | 6.0 | 0.00 | 0.05 | 0.05 | 70 | 1045.7 |
| 20260902214256 | 85 | 145 | 1.0 | 5.0 | 0.00 | 0.05 | 0.05 | 71 | 1045.7 |
| 20260902214009 | 85 | 195 | 1.0 | 5.0 | 0.00 | 0.05 | 0.05 | 70 | 1046.0 |
| 20260902213239 | 85 | 165 | 1.0 | 5.0 | 0.00 | 0.05 | 0.05 | 72 | 1046.0 |
| 20260902212738 | 85 | 207 | 2.0 | 6.0 | 0.00 | 0.05 | 0.05 | 73 | 1046.0 |
| 20260902212229 | 85 | 217 | 2.0 | 6.0 | 0.00 | 0.05 | 0.05 | 75 | 1046.2 |
| 20260902211717 | 85 | 107 | 2.0 | 6.0 | 0.00 | 0.05 | 0.05 | 76 | 1046.2 |
| 20260902211209 | 85 | 198 | 3.0 | 6.0 | 0.00 | 0.05 | 0.05 | 75 | 1046.2 |
| 20260902210704 | 85 | 250 | 2.0 | 6.0 | 0.00 | 0.05 | 0.05 | 74 | 1046.1 |
| 20260902210158 | 85 | 123 | 2.0 | 6.0 | 0.00 | 0.05 | 0.05 | 73 | 1046.1 |
| 20260902205652 | 85 | 190 | 1.0 | 5.0 | 0.00 | 0.05 | 0.05 | 72 | 1046.1 |